{"data":{"norad_id":32711,"intl_designator":"2008-012A","name":"GPS BIIRM-6 (PRN 07)","alt_names":[],"object_type":"PAYLOAD","status":"ACTIVE","operator":null,"country":"US","launch_date":"2008-03-15","launch_site_code":"AFETR","launch_vehicle":null,"mission":null,"orbit_class":"UNKNOWN","rcs_meters":5.0119,"size_class":null,"mass_kg":null,"dimensions":null,"purposes":["nav"],"wikipedia_slug":null,"has_3d_model":false,"image_url":null,"decayed_at":null,"tle_current":{"epoch":"2026-05-24T16:53:51.824256Z","epoch_age_seconds":103905,"freshness":"FRESH","line1":"1 32711U 08012A   26144.70407204  .00000088  00000+0  00000+0 0  9990","line2":"2 32711  54.4937 150.8627 0210704 247.5365 110.2445  2.00571812133283","mean_motion":2.00571812,"eccentricity":0.0210704,"inclination_deg":54.4937,"raan_deg":150.8627,"arg_perigee_deg":247.5365,"mean_anomaly_deg":110.2445,"bstar":0,"rev_number":13328,"period_min":717.94734546248,"perigee_km":19621.864308688,"apogee_km":20741.108077749,"semimajor_km":26559.623193219,"source":"CELESTRAK","updated_at":"2026-05-25T13:38:23.730595Z"}}}